[[{"header":{"parameterUnit":"m.s-1","parameterCategory":1,"la1":30.2991,"la2":30.254,"lo1":-89.0895,"lo2":-89.0444,"dy":0.0017,"dx":0.0017,"nx":28,"ny":28,"refTime":"2024-05-03T21:00:00:Z","depth":0,"parameterNumber":2,"parameterNumberName":"U-component_of_WINDS"},"data":[0,0,0,0,0,0,0,0,0,0,0,0,0,0,0,0,0,0,0,0,0,0,0,0,0,0,0,0,0,0,0,0,0,0,0,0,0,0,0,0,0,0,0,0,0,0,0,0,0,0,0,0,0,0,0,0,0,0,-0.4219,-0.4219,0,-0.4197,-0.4197,-0.4197,-0.4197,-0.4197,-0.4197,-0.4198,-0.4175,-0.4175,-0.4174,0,0,0,0,0,0,0,0,0,0,0,0,0,-0.426,-0.4259,-0.4219,-0.4219,-0.4218,-0.4197,-0.4197,-0.4197,-0.4197,-0.4197,-0.4198,-0.4198,-0.4176,-0.4175,-0.4174,0,0,0,0,0,0,0,0,0,0,0,0,0,-0.4241,-0.4259,-0.4219,-0.4216,-0.4215,-0.4197,-0.4197,-0.4197,-0.4197,-0.4197,-0.4198,-0.4198,-0.4176,-0.4175,-0.4173,-0.4157,0,0,-0.417,-0.4169,0,0,0,0,0,0,0,0,-0.4242,-0.4239,-0.4217,-0.4216,-0.4216,-0.42,-0.4203,-0.4183,-0.4197,-0.4204,-0.4198,-0.4198,-0.4183,-0.4181,-0.4176,-0.4156,-0.4155,-0.4169,-0.4169,-0.4168,-0.4168,0,0,0,0,0,0,0,-0.4243,-0.424,-0.421,-0.4216,-0.4216,-0.4216,-0.4213,-0.42,-0.4191,-0.4203,-0.4203,-0.4201,-0.4183,-0.4178,-0.4176,-0.4155,-0.4169,-0.4168,-0.4168,-0.4167,-0.412,-0.412,0,0,0,0,0,0,-0.4245,-0.4241,-0.4211,-0.421,-0.423,-0.4215,-0.4212,-0.4205,-0.4192,-0.419,-0.42,-0.4201,-0.418,-0.4177,-0.4175,-0.4155,-0.4168,-0.4167,-0.4166,-0.4121,-0.412,-0.4119,0,0,0,0,0,0,-0.4246,-0.4243,-0.4212,-0.4226,-0.4222,-0.4213,-0.4205,-0.4204,-0.4199,-0.4189,-0.4188,-0.4196,-0.418,-0.4177,-0.4162,-0.4154,-0.4166,-0.4165,-0.4121,-0.412,-0.412,-0.4115,0,0,0,0,0,0,-0.4247,-0.4243,-0.4237,-0.4225,-0.4221,-0.4199,-0.4205,-0.4203,-0.4197,-0.4197,-0.4185,-0.4184,-0.418,-0.4164,-0.416,-0.4153,-0.4164,-0.4122,-0.4121,-0.412,-0.4116,-0.4114,-0.4113,0,0,0,0,0,-0.4249,-0.4236,-0.4236,-0.4233,-0.4213,-0.4198,-0.4196,-0.4192,-0.4196,-0.419,-0.4184,-0.4184,-0.4156,-0.4162,-0.4158,-0.415,-0.4122,-0.4121,-0.412,-0.4117,-0.4115,-0.4113,0,0,0,0,0,0,-0.4247,-0.4235,-0.4235,-0.4218,-0.4209,-0.4198,-0.419,-0.419,-0.418,-0.4181,-0.4176,-0.4174,-0.4158,-0.4153,-0.416,-0.4134,-0.4139,-0.4138,-0.4138,-0.4136,-0.4135,-0.4136,-0.4163,0,0,0,0,0,-0.4244,-0.4233,-0.4224,-0.421,-0.4205,-0.4199,-0.4192,-0.419,-0.4181,-0.4177,-0.417,-0.4161,-0.415,-0.4143,-0.4132,-0.4115,-0.4113,-0.4108,-0.4107,-0.4105,-0.4104,-0.4095,-0.4092,-0.4116,-0.4116,-0.4116,0,0,-0.4239,-0.4231,-0.4225,-0.4209,-0.4202,-0.4191,-0.4195,-0.4184,-0.4175,-0.4175,-0.416,-0.4155,-0.4144,-0.4128,-0.4121,-0.4123,-0.4097,-0.4104,-0.4103,-0.4102,-0.4093,-0.4091,-0.4089,-0.4115,-0.4115,-0.4115,0,0,-0.4224,-0.4217,-0.4205,-0.4198,-0.4187,-0.4183,-0.418,-0.4169,-0.4165,-0.415,-0.415,-0.414,-0.4121,-0.4114,-0.4108,-0.409,-0.409,-0.4087,-0.408,-0.4071,-0.4069,-0.4067,-0.4061,-0.4059,-0.4086,-0.4085,-0.4085,0,-0.4219,-0.4202,-0.4199,-0.4187,-0.418,-0.4179,-0.4167,-0.416,-0.4147,-0.4142,-0.4145,-0.4121,-0.4114,-0.4097,-0.4092,-0.4087,-0.4084,-0.4088,-0.4069,-0.4068,-0.4066,-0.406,-0.4058,-0.4085,-0.4085,-0.4085,-0.4085,0,-0.4197,-0.4185,-0.4177,-0.4164,-0.4156,-0.4144,-0.4138,-0.4131,-0.4129,-0.4125,-0.411,-0.4101,-0.4089,-0.4084,-0.4083,-0.4066,-0.4068,-0.407,-0.4076,-0.4063,-0.4058,-0.4055,-0.4085,-0.4085,-0.4085,-0.4085,0,0,-0.418,-0.4165,-0.4162,-0.4156,-0.4144,-0.4135,-0.4123,-0.4111,-0.4105,-0.4096,-0.4086,-0.407,-0.4072,-0.4065,-0.4062,-0.4054,-0.4041,-0.4057,-0.4057,-0.4055,-0.4023,-0.4021,-0.4019,-0.4041,-0.4041,-0.404,-0.4024,0,-0.4164,-0.4142,-0.4139,-0.412,-0.4109,-0.4109,-0.4098,-0.409,-0.4085,-0.4075,-0.407,-0.4059,-0.4062,-0.4058,-0.405,-0.4044,-0.4035,-0.4046,-0.4032,-0.4031,-0.4034,-0.4016,-0.4014,-0.3999,-0.4021,-0.4021,-0.4021,0,-0.4142,-0.4132,-0.4113,-0.4103,-0.4098,-0.4089,-0.4077,-0.4068,-0.4059,-0.4056,-0.4048,-0.4046,-0.4034,-0.404,-0.4023,-0.403,-0.4024,-0.4021,-0.402,-0.4018,-0.4025,-0.4014,-0.3994,-0.3991,-0.4017,-0.4017,-0.4018,0,-0.4132,-0.4114,-0.41,-0.4095,-0.4082,-0.4076,-0.407,-0.4061,-0.4055,-0.4045,-0.404,-0.4029,-0.4023,-0.4015,-0.401,-0.4015,-0.3993,-0.3999,-0.399,-0.399,-0.3986,-0.3986,-0.3964,-0.3982,-0.3982,-0.3982,-0.3982,0,-0.4114,-0.4103,-0.4095,-0.4086,-0.4073,-0.4069,-0.4056,-0.405,-0.4042,-0.4032,-0.4031,-0.4022,-0.4016,-0.4007,-0.4003,-0.3989,-0.3986,-0.3984,-0.3983,-0.3984,-0.3984,-0.398,-0.3981,-0.3981,-0.3981,-0.3982,-0.3982,0,-0.4101,-0.4095,-0.408,-0.407,-0.4067,-0.4057,-0.4048,-0.404,-0.4035,-0.4023,-0.402,-0.4012,-0.4001,-0.3995,-0.3981,-0.3978,-0.3963,-0.3963,-0.3966,-0.3966,-0.3958,-0.3959,-0.3933,-0.3929,-0.3949,-0.3949,-0.3949,0,-0.409,-0.4081,-0.407,-0.4063,-0.4057,-0.4047,-0.404,-0.4035,-0.4028,-0.4017,-0.4009,-0.3998,-0.3988,-0.397,-0.3963,-0.3952,-0.3951,-0.3943,-0.395,-0.3951,-0.3951,-0.3952,-0.3951,-0.3942,-0.3942,-0.3942,-0.3941,0,-0.4072,-0.4069,-0.4059,-0.4048,-0.404,-0.4031,-0.4023,-0.4017,-0.4011,-0.4003,-0.3991,-0.3984,-0.3969,-0.3958,-0.3946,-0.394,-0.394,-0.3939,-0.3937,-0.3938,-0.394,-0.3939,-0.3963,-0.394,-0.394,-0.394,-0.394,-0.394,-0.4059,-0.4051,-0.4042,-0.4031,-0.4024,-0.4016,-0.4007,-0.4002,-0.3991,-0.3979,-0.3977,-0.3964,-0.3955,-0.394,-0.3934,-0.3924,-0.3926,-0.3922,-0.3921,-0.392,-0.392,-0.3942,-0.3921,-0.3921,-0.3922,-0.3922,-0.3922,0,-0.4041,-0.4035,-0.4025,-0.4013,-0.4004,-0.4004,-0.3995,-0.3987,-0.3976,-0.3968,-0.3958,-0.3945,-0.3933,-0.3926,-0.3914,-0.3908,-0.3907,-0.3905,-0.3905,-0.3904,-0.3919,-0.3922,-0.3906,-0.3906,-0.3906,-0.3906,-0.3906,-0.3906,-0.4031,-0.4017,-0.4013,-0.3996,-0.399,-0.3978,-0.3972,-0.3965,-0.3958,-0.3943,-0.3933,-0.3928,-0.392,-0.3908,-0.3898,-0.3896,-0.3892,-0.389,-0.3888,-0.3901,-0.3903,-0.3905,-0.3908,-0.3889,-0.3889,-0.3874,-0.3874,-0.3874]},{"header":{"parameterUnit":"m.s-1","parameterCategory":1,"la1":30.2991,"la2":30.254,"lo1":-89.0895,"lo2":-89.0444,"dy":0.0017,"dx":0.0017,"nx":28,"ny":28,"refTime":"2024-05-03T21:00:00:Z","depth":0,"parameterNumber":3,"parameterNumberName":"V-component_of_WINDS"},"data":[0,0,0,0,0,0,0,0,0,0,0,0,0,0,0,0,0,0,0,0,0,0,0,0,0,0,0,0,0,0,0,0,0,0,0,0,0,0,0,0,0,0,0,0,0,0,0,0,0,0,0,0,0,0,0,0,0,0,2.0349,2.0348,0,2.0295,2.0294,2.0294,2.0235,2.0234,2.0233,2.0232,2.0174,2.0173,2.0172,0,0,0,0,0,0,0,0,0,0,0,0,0,2.0399,2.0398,2.0349,2.0348,2.0348,2.0295,2.0294,2.0294,2.0235,2.0234,2.0233,2.0232,2.0174,2.0173,2.0172,0,0,0,0,0,0,0,0,0,0,0,0,0,2.0364,2.0398,2.0349,2.0312,2.0308,2.0295,2.0294,2.0293,2.0235,2.0234,2.0233,2.0231,2.0174,2.0173,2.0172,2.019,0,0,2.0168,2.0168,0,0,0,0,0,0,0,0,2.0366,2.0362,2.0318,2.0315,2.031,2.027,2.029,2.0258,2.0236,2.0263,2.0232,2.0231,2.0207,2.0203,2.0195,2.0187,2.0184,2.0168,2.0167,2.0167,2.0167,0,0,0,0,0,0,0,2.0369,2.0364,2.0327,2.0318,2.0313,2.0297,2.0291,2.0284,2.0242,2.026,2.0256,2.0251,2.0204,2.0196,2.0193,2.0184,2.0168,2.0167,2.0166,2.0166,2.0187,2.0188,0,0,0,0,0,0,2.0377,2.0367,2.0329,2.0326,2.0336,2.0298,2.0291,2.0284,2.0242,2.0235,2.0252,2.0248,2.0199,2.0195,2.0191,2.0209,2.0167,2.0166,2.0165,2.0186,2.0187,2.0189,0,0,0,0,0,0,2.0378,2.0374,2.0331,2.0345,2.0339,2.0298,2.0292,2.0284,2.0276,2.0236,2.0228,2.0252,2.0198,2.0193,2.0191,2.0206,2.0165,2.0164,2.0184,2.0186,2.0188,2.0245,0,0,0,0,0,0,2.038,2.0375,2.0382,2.0346,2.0338,2.0333,2.0293,2.0284,2.0275,2.027,2.0234,2.0226,2.0197,2.0193,2.019,2.0204,2.0163,2.0183,2.0185,2.0187,2.0242,2.0249,2.0255,0,0,0,0,0,2.0382,2.04,2.0383,2.0379,2.0346,2.0334,2.0329,2.0296,2.0276,2.0283,2.0257,2.0228,2.0205,2.0193,2.0189,2.0203,2.0182,2.0185,2.0187,2.0239,2.0247,2.0255,0,0,0,0,0,0,2.0437,2.0394,2.0375,2.0381,2.0362,2.0324,2.0331,2.0306,2.0291,2.0286,2.0244,2.0236,2.0239,2.0221,2.0208,2.0218,2.0189,2.0191,2.023,2.0238,2.0244,2.0248,2.0162,0,0,0,0,0,2.0451,2.0445,2.0407,2.0417,2.0408,2.0372,2.0365,2.0341,2.0318,2.031,2.0283,2.0262,2.025,2.0243,2.023,2.0239,2.023,2.0247,2.0253,2.0259,2.0261,2.0264,2.0271,2.0198,2.0198,2.0198,0,0,2.0477,2.0453,2.0452,2.0427,2.0409,2.0404,2.0365,2.0361,2.0356,2.0308,2.0305,2.0286,2.0259,2.0263,2.0263,2.0247,2.0279,2.0263,2.0267,2.0266,2.0268,2.0275,2.0281,2.02,2.02,2.0199,0,0,2.0523,2.0504,2.051,2.0493,2.0467,2.0443,2.0445,2.0411,2.0396,2.0393,2.0357,2.035,2.0331,2.0313,2.0302,2.0342,2.0315,2.0339,2.0373,2.0376,2.0382,2.0387,2.0401,2.0406,2.0341,2.0341,2.0342,0,2.0559,2.055,2.0516,2.0514,2.0504,2.0463,2.0468,2.0453,2.0423,2.0417,2.0401,2.0376,2.0355,2.0354,2.0364,2.0356,2.0356,2.0342,2.0384,2.0389,2.0393,2.0406,2.0411,2.0345,2.0344,2.0344,2.0344,0,2.0596,2.059,2.0598,2.0572,2.0563,2.0565,2.053,2.0525,2.0502,2.0479,2.0476,2.0449,2.043,2.0428,2.0405,2.0424,2.0415,2.0393,2.0362,2.0404,2.0415,2.0419,2.0349,2.0348,2.0347,2.0346,0,0,2.0673,2.0629,2.0632,2.062,2.0589,2.0584,2.0584,2.0566,2.0562,2.0544,2.0542,2.0527,2.0506,2.0493,2.0468,2.0471,2.0504,2.0447,2.0446,2.0458,2.0523,2.054,2.0546,2.0486,2.0487,2.0488,2.0525,0,2.0712,2.071,2.068,2.0686,2.068,2.0642,2.0641,2.0622,2.0601,2.0592,2.0569,2.0559,2.0532,2.0524,2.0526,2.05,2.0516,2.0497,2.0483,2.0483,2.049,2.0552,2.0569,2.0605,2.0529,2.053,2.053,0,2.0758,2.0743,2.0749,2.0719,2.0715,2.0715,2.0697,2.069,2.0667,2.0651,2.0638,2.061,2.0607,2.058,2.0574,2.0562,2.0554,2.0541,2.0541,2.0538,2.0508,2.0549,2.0616,2.0621,2.0537,2.0536,2.0536,0,2.0813,2.0795,2.0796,2.0787,2.0751,2.0752,2.0737,2.0713,2.0705,2.0689,2.0683,2.0666,2.0657,2.0644,2.0612,2.0596,2.061,2.058,2.0596,2.0597,2.06,2.06,2.0666,2.0597,2.0597,2.0597,2.0597,0,2.0859,2.0864,2.082,2.0821,2.0826,2.0791,2.0796,2.0777,2.0756,2.0752,2.0717,2.0713,2.0672,2.0664,2.0639,2.0637,2.0634,2.062,2.0613,2.0623,2.0624,2.0616,2.0613,2.0598,2.0598,2.0598,2.0597,0,2.0921,2.0892,2.089,2.0857,2.0849,2.0854,2.0825,2.0824,2.0802,2.0797,2.0793,2.0758,2.0746,2.0714,2.0693,2.0676,2.0682,2.067,2.069,2.0686,2.0703,2.0702,2.0765,2.0772,2.07,2.0701,2.0701,0,2.0952,2.0955,2.0923,2.0918,2.0905,2.0898,2.0889,2.0855,2.0848,2.0822,2.0824,2.081,2.0797,2.078,2.0752,2.0736,2.0723,2.0746,2.072,2.0729,2.0722,2.0722,2.0722,2.0751,2.0752,2.0753,2.0754,0,2.1009,2.0995,2.0985,2.0971,2.0962,2.0948,2.0933,2.0931,2.0892,2.0886,2.0874,2.0864,2.0845,2.0831,2.0811,2.0794,2.0767,2.0763,2.0765,2.0774,2.0786,2.0779,2.0705,2.0761,2.076,2.076,2.0759,2.0759,2.1056,2.1057,2.1035,2.1025,2.101,2.0996,2.0994,2.0972,2.0962,2.0944,2.0924,2.0915,2.0892,2.0863,2.0848,2.084,2.0826,2.083,2.083,2.0832,2.0836,2.0789,2.0836,2.0836,2.0836,2.0835,2.0835,0,2.1111,2.1095,2.1087,2.1067,2.1059,2.1037,2.1018,2.1013,2.1005,2.0987,2.0975,2.0962,2.0949,2.0921,2.0904,2.0903,2.089,2.09,2.0899,2.0896,2.085,2.0849,2.0911,2.0911,2.0911,2.0911,2.091,2.091,2.1139,2.114,2.1123,2.1116,2.11,2.1091,2.1083,2.107,2.1055,2.1043,2.1032,2.1014,2.0991,2.0973,2.096,2.0952,2.0947,2.0961,2.0948,2.0906,2.0899,2.0892,2.0891,2.096,2.096,2.0995,2.0995,2.0995]}]]